Tracking 19720 objects as of 26-Jun-2019
HD Live streaming from Space Station
objects crossing your sky now

RADUGA 17

Track RADUGA 17 now!
RADUGA 17 is classified as:


NORAD ID: 16250
Int'l Code: 1985-107A
Perigee: 35,791.9 km
Apogee: 35,866.1 km
Inclination: 13.6 °
Period: 1,437.9 minutes
Semi major axis: 42199 km
RCS: 3.981 m2 (large)
Launch date: November 15, 1985
Source: Commonwealth of Independent States (former USSR) (CIS)
Launch site: TYURATAM MISSILE AND SPACE COMPLEX (TTMTR)
aabbcc
Your satellite tracking list
Your tracking list is empty




NASA's NSSDC Master Catalog

Two Line Element Set (TLE):
1 16250U 85107A   19176.56961167  .00000128  00000-0  00000+0 0  9990
2 16250  13.6446 339.3632 0008782 149.2697  25.4982  1.00146144126271
Source of the keplerian elements: AFSPC